[[{"header":{"parameterUnit":"m.s-1","parameterCategory":2,"la1":30.2991,"la2":30.254,"lo1":-89.0895,"lo2":-89.0444,"dy":0.0017,"dx":0.0017,"nx":28,"ny":28,"refTime":"2025-06-21T03:00:00:Z","depth":"0","parameterNumber":2,"parameterNumberName":"U-component_of_CURRENTS"},"data":[0,0,0,0,0,0,0,0,0,0,0,0,0,0,0,0,0,0,0,0,0,0,0,0,0,0,0,0,0,0,0,0,0,0,0,0,0,0,0,0,0,0,0,0,0,0,0,0,0,0,0,0,0,0,0,0,0,0,-0.0034,-0.0036,0,-0.022,-0.0222,-0.0225,-0.0365,-0.0366,-0.0368,-0.0369,-0.0535,-0.0538,-0.0541,0,0,0,0,0,0,0,0,0,0,0,0,0,0.0082,0.0081,-0.0034,-0.0036,-0.0038,-0.022,-0.0222,-0.0225,-0.0365,-0.0367,-0.0368,-0.0369,-0.0534,-0.0538,-0.0542,0,0,0,0,0,0,0,0,0,0,0,0,0,-0.0024,0.0081,-0.0033,-0.0129,-0.0139,-0.0219,-0.0223,-0.0226,-0.0365,-0.0367,-0.0368,-0.037,-0.0532,-0.0537,-0.0542,-0.0539,0,0,-0.0558,-0.056,0,0,0,0,0,0,0,0,-0.0018,-0.0028,-0.0112,-0.0122,-0.0134,-0.027,-0.0243,-0.0329,-0.0364,-0.0281,-0.0369,-0.0371,-0.0442,-0.0455,-0.0488,-0.0547,-0.0554,-0.0558,-0.0561,-0.0563,-0.0565,0,0,0,0,0,0,0,-0.001,-0.0022,-0.0109,-0.0114,-0.0128,-0.0203,-0.0219,-0.0261,-0.035,-0.0288,-0.0298,-0.0316,-0.0448,-0.0483,-0.0493,-0.0557,-0.0558,-0.0563,-0.0566,-0.0568,-0.0599,-0.0597,0,0,0,0,0,0,0.0024,-0.0014,-0.0103,-0.0114,-0.0077,-0.0203,-0.0221,-0.0226,-0.0351,-0.0371,-0.0314,-0.0322,-0.0474,-0.0487,-0.05,-0.0397,-0.0563,-0.0568,-0.0571,-0.0601,-0.0599,-0.0596,0,0,0,0,0,0,0.0028,0.0019,-0.0096,-0.0068,-0.0088,-0.0202,-0.0207,-0.0228,-0.0263,-0.0371,-0.0392,-0.0327,-0.0476,-0.0492,-0.0517,-0.0409,-0.057,-0.0575,-0.0604,-0.06,-0.0597,-0.0261,0,0,0,0,0,0,0.0032,0.0022,0.0041,-0.0065,-0.0088,-0.0079,-0.0206,-0.0231,-0.0271,-0.0283,-0.0388,-0.0406,-0.0478,-0.0509,-0.0522,-0.0419,-0.0579,-0.0607,-0.0602,-0.0598,-0.0274,-0.0246,-0.0222,0,0,0,0,0,0.0037,0.0102,0.0043,0.0033,-0.0061,-0.0074,-0.009,-0.0182,-0.0269,-0.0232,-0.0335,-0.0402,-0.0492,-0.051,-0.0527,-0.0422,-0.0609,-0.0603,-0.0599,-0.0286,-0.0252,-0.0223,0,0,0,0,0,0,0.0177,0.0089,0.0024,0.0059,0.0015,-0.0096,-0.0075,-0.0166,-0.0224,-0.024,-0.0376,-0.0397,-0.0372,-0.0464,-0.0482,-0.0429,-0.056,-0.0558,-0.0317,-0.0286,-0.026,-0.0154,-0.0583,0,0,0,0,0,0.0211,0.023,0.0133,0.0168,0.0151,0.0029,0.0005,-0.0053,-0.0128,-0.0159,-0.0247,-0.0333,-0.0364,-0.038,-0.0427,-0.04,-0.0382,-0.0351,-0.0324,-0.0301,-0.023,-0.0147,-0.0103,-0.058,-0.058,-0.058,0,0,0.0269,0.023,0.0235,0.0198,0.0144,0.0168,0.0014,0.0018,0.0045,-0.0162,-0.0148,-0.0238,-0.0341,-0.0299,-0.0296,-0.0359,-0.0145,-0.0294,-0.0272,-0.0214,-0.0136,-0.0089,-0.0046,-0.0577,-0.0577,-0.0578,0,0,0.0411,0.0367,0.0421,0.0402,0.0354,0.0297,0.0305,0.0208,0.0182,0.018,0.0043,0.0025,-0.006,-0.0082,-0.0113,0.0024,-0.0009,-0.0017,0.0216,0.0297,0.034,0.0377,0.0534,0.0582,-0.0002,-0.0001,-0.0,0,0.0477,0.0518,0.0444,0.0494,0.0491,0.0366,0.0424,0.0407,0.0316,0.0326,0.0239,0.0163,0.007,0.0145,0.019,0.0102,0.0153,0.0117,0.0344,0.038,0.0413,0.0563,0.0612,0.0016,0.0014,0.0012,0.0011,0,0.0633,0.067,0.0716,0.0724,0.0736,0.0776,0.073,0.0746,0.0676,0.0642,0.0689,0.057,0.0529,0.0497,0.0391,0.0565,0.0535,0.0377,0.0292,0.0484,0.0627,0.0673,0.004,0.0034,0.0029,0.0025,0,0,0.0752,0.0804,0.0818,0.0838,0.0849,0.0863,0.0967,0.1007,0.1058,0.103,0.1113,0.1078,0.1001,0.0961,0.083,0.09,0.1179,0.0763,0.0759,0.0974,0.1447,0.1589,0.1651,0.1062,0.107,0.1076,0.1483,0,0.0876,0.0995,0.1004,0.1122,0.1162,0.1131,0.1226,0.1266,0.1269,0.1333,0.1304,0.1318,0.1183,0.1151,0.1232,0.115,0.1303,0.109,0.118,0.1186,0.1333,0.1709,0.1807,0.2191,0.1527,0.1534,0.1539,0,0.1007,0.106,0.1187,0.1269,0.1287,0.1355,0.1451,0.1521,0.1626,0.164,0.1713,0.1648,0.1769,0.1575,0.1745,0.1614,0.1611,0.1572,0.1582,0.1638,0.1415,0.1868,0.2297,0.2211,0.1608,0.1603,0.1598,0,0.1067,0.1188,0.128,0.1305,0.1394,0.1459,0.1508,0.1611,0.1678,0.1829,0.1884,0.2016,0.2038,0.2102,0.2061,0.1915,0.2256,0.2008,0.2183,0.2191,0.2262,0.2265,0.2668,0.2215,0.2214,0.2213,0.2212,0,0.1173,0.1245,0.1305,0.1348,0.1459,0.1512,0.1644,0.1719,0.1853,0.1961,0.2025,0.213,0.2161,0.2305,0.2269,0.2466,0.2451,0.2387,0.2357,0.2385,0.2394,0.2294,0.2211,0.2228,0.2225,0.2222,0.2219,0,0.1224,0.127,0.136,0.1454,0.1482,0.1553,0.1673,0.1757,0.19,0.2047,0.2102,0.229,0.2522,0.2612,0.274,0.2739,0.2857,0.2911,0.3008,0.2986,0.3038,0.2968,0.3165,0.3116,0.3234,0.3241,0.3246,0,0.1265,0.1313,0.1396,0.142,0.1457,0.1555,0.1611,0.176,0.1845,0.2118,0.2186,0.2489,0.2684,0.3076,0.3213,0.3428,0.3154,0.3581,0.3316,0.3245,0.3139,0.2803,0.2717,0.3559,0.3567,0.3573,0.3578,0,0.131,0.1324,0.1371,0.142,0.1467,0.1537,0.1632,0.1714,0.1898,0.206,0.2313,0.2515,0.2989,0.3308,0.3658,0.3753,0.3512,0.3717,0.3607,0.3506,0.3206,0.3072,0.3102,0.3635,0.3629,0.3625,0.3622,0.362,0.1307,0.1326,0.1357,0.1401,0.1442,0.1493,0.1545,0.1675,0.1843,0.2086,0.2318,0.2642,0.321,0.3753,0.3862,0.4183,0.3895,0.4086,0.4043,0.373,0.3611,0.385,0.4324,0.4323,0.4321,0.432,0.4319,0,0.1282,0.1293,0.1328,0.1363,0.137,0.1422,0.1527,0.1585,0.1752,0.207,0.2322,0.2933,0.3449,0.3886,0.4448,0.4459,0.4174,0.4406,0.3943,0.3862,0.4115,0.4053,0.4535,0.4535,0.4535,0.4535,0.4535,0.4535,0.1262,0.1265,0.1278,0.127,0.1287,0.1296,0.1341,0.147,0.1687,0.2077,0.2432,0.2731,0.3416,0.4213,0.4581,0.4574,0.4221,0.418,0.3985,0.4155,0.4114,0.4075,0.3997,0.4459,0.4459,0.3588,0.3583,0.3579]},{"header":{"parameterUnit":"m.s-1","parameterCategory":2,"la1":30.2991,"la2":30.254,"lo1":-89.0895,"lo2":-89.0444,"dy":0.0017,"dx":0.0017,"nx":28,"ny":28,"refTime":"2025-06-21T03:00:00:Z","depth":"0","parameterNumber":3,"parameterNumberName":"V-component_of_CURRENTS"},"data":[0,0,0,0,0,0,0,0,0,0,0,0,0,0,0,0,0,0,0,0,0,0,0,0,0,0,0,0,0,0,0,0,0,0,0,0,0,0,0,0,0,0,0,0,0,0,0,0,0,0,0,0,0,0,0,0,0,0,0.0089,0.0089,0,0.0038,0.0037,0.0036,-0.0016,-0.0016,-0.0017,-0.0017,-0.0227,-0.0232,-0.0237,0,0,0,0,0,0,0,0,0,0,0,0,0,0.0131,0.0131,0.0089,0.0089,0.0088,0.0038,0.0037,0.0036,-0.0016,-0.0016,-0.0017,-0.0017,-0.0225,-0.0232,-0.0238,0,0,0,0,0,0,0,0,0,0,0,0,0,0.0096,0.013,0.0089,0.0059,0.0056,0.0038,0.0037,0.0036,-0.0016,-0.0016,-0.0017,-0.0017,-0.0223,-0.0231,-0.0239,-0.0277,0,0,-0.0263,-0.0266,0,0,0,0,0,0,0,0,0.0098,0.0094,0.0064,0.0061,0.0058,0.002,-0.0025,-0.0075,-0.0016,0.0008,-0.0017,-0.0018,-0.0156,-0.017,-0.0181,-0.0286,-0.0296,-0.0264,-0.0268,-0.0272,-0.0274,0,0,0,0,0,0,0,0.0101,0.0096,0.0065,0.0064,0.006,0.0045,0.0039,-0.0034,-0.0077,0.0005,0.0003,0.0003,-0.016,-0.0173,-0.0187,-0.0299,-0.0263,-0.027,-0.0275,-0.0278,-0.0368,-0.0365,0,0,0,0,0,0,0.0116,0.0099,0.0067,0.0064,0.0082,0.0045,0.0039,0.003,-0.0073,-0.0086,0.0004,0.0001,-0.016,-0.0178,-0.0195,-0.0225,-0.0272,-0.0279,-0.0284,-0.037,-0.0367,-0.0364,0,0,0,0,0,0,0.0117,0.0113,0.0069,0.0084,0.0077,0.0046,0.0036,0.0029,0.0012,-0.0071,-0.0089,-0.0006,-0.0161,-0.0184,-0.0219,-0.0235,-0.0283,-0.029,-0.0373,-0.0369,-0.0366,-0.03,0,0,0,0,0,0,0.0118,0.0114,0.0113,0.0084,0.0077,0.0056,0.0037,0.0029,0.0015,0.0011,-0.0086,-0.0106,-0.0163,-0.0206,-0.0226,-0.0247,-0.0296,-0.0376,-0.0371,-0.0367,-0.0305,-0.0295,-0.0286,0,0,0,0,0,0.012,0.0119,0.0112,0.0109,0.0076,0.0056,0.0051,0.0024,0.0015,0.0006,-0.0022,-0.0103,-0.0193,-0.021,-0.0235,-0.0258,-0.0378,-0.0372,-0.0367,-0.031,-0.0297,-0.0286,0,0,0,0,0,0,0.0133,0.0113,0.0105,0.0097,0.008,0.0049,0.0044,0.0027,-0.0003,-0.0008,-0.008,-0.0101,-0.0144,-0.0187,-0.0205,-0.0259,-0.0297,-0.0296,-0.0245,-0.0234,-0.0224,-0.02,-0.0303,0,0,0,0,0,0.0139,0.0134,0.0112,0.0106,0.01,0.0074,0.0064,0.0043,0.0017,0.0003,-0.0053,-0.0099,-0.014,-0.0173,-0.0225,-0.026,-0.0295,-0.0281,-0.0272,-0.0263,-0.0253,-0.0298,-0.0293,-0.0347,-0.0347,-0.0347,0,0,0.0147,0.0134,0.0133,0.011,0.0095,0.0103,0.0065,0.0048,0.0056,-0.0019,-0.003,-0.0084,-0.0139,-0.017,-0.0193,-0.0211,-0.026,-0.0257,-0.025,-0.0244,-0.0292,-0.0287,-0.0283,-0.0343,-0.0344,-0.0345,0,0,0.0182,0.0146,0.0169,0.0153,0.0135,0.0115,0.0114,0.0084,0.0067,0.0052,0.0012,-0.0026,-0.01,-0.0131,-0.0157,-0.012,-0.0212,-0.0145,-0.0087,-0.0131,-0.0128,-0.0126,-0.0149,-0.015,-0.0137,-0.0136,-0.0136,0,0.0204,0.0224,0.0171,0.0189,0.0198,0.013,0.0167,0.0131,0.0095,0.0105,0.0057,-0.0002,-0.0078,-0.0084,-0.0074,-0.0108,-0.0134,-0.0138,-0.0122,-0.0121,-0.012,-0.0145,-0.0146,-0.0133,-0.0133,-0.0133,-0.0134,0,0.0266,0.0279,0.0286,0.0294,0.0282,0.0293,0.025,0.0233,0.0201,0.0182,0.0158,0.0071,0.005,0.0005,-0.0038,-0.0054,-0.0075,-0.0114,-0.0162,-0.0111,-0.0139,-0.0142,-0.0127,-0.0129,-0.013,-0.0131,0,0,0.0362,0.0344,0.0354,0.0386,0.0345,0.0354,0.0348,0.0356,0.0396,0.0301,0.0347,0.0234,0.0187,0.0158,0.0087,0.0029,-0.0009,-0.0037,-0.0041,-0.0076,-0.009,-0.0059,-0.006,-0.0053,-0.0054,-0.0054,-0.0108,0,0.0455,0.0517,0.048,0.0549,0.0586,0.0521,0.054,0.0519,0.049,0.0501,0.0387,0.0382,0.0246,0.0238,0.0155,0.0044,-0.0015,0.001,-0.0119,-0.0122,-0.0115,-0.0061,0.0012,-0.0026,-0.0112,-0.0112,-0.0113,0,0.0563,0.0591,0.0674,0.071,0.0725,0.0749,0.0792,0.0797,0.0765,0.0749,0.0693,0.0599,0.0505,0.0378,0.0188,0.0212,0.007,-0.0041,-0.0046,-0.0042,-0.0096,-0.0091,-0.0029,-0.0226,-0.0118,-0.0118,-0.0117,0,0.069,0.0742,0.0819,0.0825,0.0839,0.0882,0.0897,0.0889,0.0925,0.091,0.0925,0.0796,0.0744,0.0538,0.0286,0.0239,0.0082,-0.0005,-0.0111,-0.011,-0.0082,-0.0078,-0.0239,-0.014,-0.014,-0.014,-0.014,0,0.0817,0.0882,0.0891,0.0932,0.1046,0.1015,0.113,0.113,0.1151,0.1202,0.1064,0.1067,0.0774,0.0628,0.0375,0.0151,0.0152,-0.0082,-0.0117,-0.0052,-0.0045,-0.0244,-0.0408,-0.0142,-0.0142,-0.0141,-0.0141,0,0.0931,0.0937,0.1025,0.1073,0.1102,0.1181,0.1259,0.133,0.1345,0.1401,0.1395,0.1283,0.1113,0.0828,0.0532,0.0301,-0.005,-0.002,0.009,0.0069,-0.0224,-0.0385,-0.0557,-0.0709,-0.0145,-0.0144,-0.0144,0,0.0984,0.1042,0.1122,0.1175,0.1202,0.1307,0.1374,0.1425,0.149,0.1519,0.1549,0.1437,0.1366,0.0997,0.0608,0.0246,-0.001,0.0062,-0.0031,-0.0207,-0.0415,-0.0492,-0.0616,0.003,0.0032,0.0033,0.0035,0,0.1072,0.1096,0.115,0.1263,0.1349,0.1462,0.156,0.1648,0.169,0.1746,0.1789,0.1754,0.1445,0.1169,0.0727,0.043,-0.0069,0.0081,-0.014,-0.0312,-0.037,-0.0541,0.0036,0.0048,0.0047,0.0046,0.0045,0.0044,0.1104,0.1159,0.1218,0.1331,0.1438,0.1577,0.167,0.1774,0.1899,0.198,0.1972,0.2003,0.1677,0.1101,0.0692,0.0082,-0.0033,-0.0128,-0.0313,-0.0375,-0.0511,0.0115,0.0108,0.0107,0.0107,0.0106,0.0105,0,0.1111,0.1171,0.1276,0.1402,0.1525,0.1585,0.1752,0.1845,0.198,0.2123,0.2186,0.2194,0.1679,0.1147,0.0352,-0.0176,-0.0421,-0.0484,-0.0605,-0.0727,-0.0181,-0.016,-0.0177,-0.0177,-0.0177,-0.0177,-0.0177,-0.0177,0.1105,0.1184,0.1248,0.1433,0.1538,0.1693,0.1789,0.1937,0.2083,0.2315,0.2476,0.2596,0.2384,0.0917,-0.0146,-0.0515,-0.099,-0.1034,-0.1326,-0.0966,-0.0947,-0.0929,-0.0945,-0.1126,-0.1128,-0.1749,-0.1755,-0.176]}],[{"header":{"parameterUnit":"m.s-1","parameterCategory":2,"la1":30.2991,"la2":30.254,"lo1":-89.0895,"lo2":-89.0444,"dy":0.0017,"dx":0.0017,"nx":28,"ny":28,"refTime":"2025-06-21T03:00:00:Z","depth":"2","parameterNumber":2,"parameterNumberName":"U-component_of_CURRENTS"},"data":[0,0,0,0,0,0,0,0,0,0,0,0,0,0,0,0,0,0,0,0,0,0,0,0,0,0,0,0,0,0,0,0,0,0,0,0,0,0,0,0,0,0,0,0,0,0,0,0,0,0,0,0,0,0,0,0,0,0,0.149,0.1492,0,0.1626,0.1628,0.1629,0.169,0.169,0.169,0.169,0.1822,0.1826,0.183,0,0,0,0,0,0,0,0,0,0,0,0,0,0.1388,0.1389,0.149,0.1492,0.1493,0.1626,0.1628,0.163,0.169,0.169,0.169,0.1689,0.1821,0.1826,0.183,0,0,0,0,0,0,0,0,0,0,0,0,0,0.147,0.1389,0.149,0.1539,0.1544,0.1625,0.1628,0.163,0.169,0.169,0.169,0.1689,0.182,0.1825,0.1831,0.1874,0,0,0.1848,0.1851,0,0,0,0,0,0,0,0,0.1465,0.1473,0.153,0.1535,0.1542,0.164,0.164,0.1711,0.1691,0.1636,0.169,0.1689,0.176,0.1771,0.1799,0.188,0.1886,0.1849,0.1852,0.1855,0.1856,0,0,0,0,0,0,0,0.1459,0.1469,0.1545,0.1532,0.1539,0.1589,0.16,0.1655,0.17,0.1641,0.1645,0.1659,0.1764,0.1794,0.1803,0.1888,0.1848,0.1854,0.1857,0.1859,0.2022,0.2023,0,0,0,0,0,0,0.1435,0.1463,0.1541,0.1549,0.15,0.1591,0.1603,0.161,0.17,0.1713,0.1659,0.1661,0.1784,0.1796,0.1808,0.1873,0.1854,0.186,0.1863,0.2021,0.2022,0.2023,0,0,0,0,0,0,0.1432,0.144,0.1535,0.1508,0.1524,0.1592,0.16,0.1613,0.1649,0.1713,0.1726,0.1682,0.1784,0.18,0.1871,0.1877,0.1862,0.1868,0.202,0.2021,0.2023,0.1997,0,0,0,0,0,0,0.1428,0.1438,0.1439,0.1506,0.1524,0.1595,0.1601,0.1616,0.1656,0.166,0.1737,0.1749,0.1785,0.1862,0.1877,0.1885,0.1872,0.2019,0.202,0.2022,0.1996,0.1997,0.1998,0,0,0,0,0,0.1424,0.1433,0.1438,0.1448,0.1522,0.1596,0.1611,0.1659,0.1657,0.1686,0.1735,0.1747,0.1882,0.1869,0.1885,0.1895,0.2018,0.202,0.2022,0.1996,0.1997,0.1998,0,0,0,0,0,0,0.1399,0.1442,0.1449,0.1472,0.153,0.1606,0.1636,0.166,0.1722,0.1724,0.1772,0.1789,0.1837,0.1881,0.1864,0.1946,0.1947,0.1952,0.1922,0.1923,0.1924,0.1987,0.1877,0,0,0,0,0,0.1388,0.1401,0.146,0.1481,0.1507,0.1568,0.1602,0.1637,0.1697,0.1723,0.1771,0.1821,0.186,0.1903,0.194,0.2011,0.2072,0.2024,0.2024,0.2024,0.2088,0.2164,0.2178,0.203,0.203,0.203,0,0,0.1384,0.141,0.1417,0.1476,0.1522,0.1585,0.1589,0.1648,0.1706,0.1728,0.1811,0.1817,0.1872,0.1929,0.1957,0.1973,0.2094,0.2027,0.2027,0.2092,0.2168,0.2183,0.2196,0.2031,0.2031,0.2031,0,0,0.1401,0.1406,0.1434,0.1483,0.1551,0.1595,0.161,0.1685,0.1723,0.1804,0.1807,0.1845,0.1923,0.1967,0.1998,0.2038,0.2073,0.2015,0.21,0.217,0.2184,0.2197,0.2268,0.2288,0.204,0.204,0.204,0,0.1393,0.1437,0.1458,0.1513,0.1559,0.16,0.1662,0.1718,0.1806,0.1845,0.1833,0.1935,0.196,0.2044,0.2049,0.2044,0.2085,0.2083,0.2172,0.2186,0.22,0.2271,0.2293,0.2039,0.2039,0.2039,0.2039,0,0.1449,0.1487,0.1513,0.1587,0.164,0.1699,0.1773,0.1824,0.1858,0.1912,0.1985,0.2022,0.2097,0.2076,0.2086,0.2175,0.2169,0.2137,0.2169,0.2214,0.2284,0.2308,0.2037,0.2038,0.2038,0.2038,0,0,0.1426,0.1527,0.154,0.1583,0.1682,0.1731,0.1825,0.1925,0.1982,0.2052,0.2137,0.2192,0.2198,0.2236,0.2223,0.2293,0.239,0.2265,0.2269,0.2338,0.255,0.2396,0.2407,0.2355,0.2359,0.2363,0.2551,0,0.1467,0.1562,0.1613,0.1713,0.1768,0.1834,0.1917,0.2006,0.2071,0.2157,0.2216,0.2281,0.2262,0.2275,0.2347,0.2369,0.2456,0.2344,0.2501,0.2508,0.2365,0.243,0.2245,0.2383,0.2574,0.2578,0.2581,0,0.1511,0.1568,0.1664,0.1768,0.1798,0.1866,0.1984,0.2066,0.2193,0.2245,0.2339,0.2371,0.2494,0.2445,0.261,0.253,0.257,0.2593,0.2599,0.25,0.2398,0.2377,0.2419,0.2621,0.2617,0.2615,0.2612,0,0.1482,0.1604,0.1672,0.1713,0.1839,0.1894,0.1965,0.2089,0.2158,0.2304,0.236,0.2501,0.2567,0.2663,0.2731,0.2675,0.2894,0.2816,0.2737,0.2726,0.2631,0.2603,0.2966,0.2966,0.2965,0.2965,0.2964,0,0.1501,0.1557,0.1662,0.1701,0.1782,0.1878,0.1971,0.2063,0.2192,0.228,0.2396,0.2484,0.2622,0.2743,0.2797,0.2853,0.2965,0.2799,0.2778,0.2609,0.2578,0.2835,0.2817,0.2972,0.297,0.2969,0.2968,0,0.1462,0.1534,0.1608,0.173,0.1768,0.1823,0.1956,0.2023,0.2154,0.2272,0.2325,0.2511,0.2669,0.2797,0.296,0.2915,0.2993,0.2986,0.2776,0.2724,0.2764,0.2743,0.292,0.2917,0.2914,0.2911,0.2909,0,0.1453,0.1486,0.1598,0.1637,0.1693,0.1783,0.1845,0.1988,0.2061,0.2276,0.2329,0.2526,0.2632,0.2819,0.2837,0.2928,0.2995,0.2746,0.2594,0.2806,0.2768,0.2751,0.2734,0.2472,0.2466,0.2462,0.2458,0,0.1426,0.1459,0.1517,0.1596,0.166,0.1731,0.1833,0.1883,0.2055,0.2167,0.2347,0.2451,0.26,0.2604,0.2667,0.2668,0.2705,0.2646,0.2989,0.2464,0.2384,0.2344,0.2344,0.2418,0.2422,0.2425,0.2427,0.2428,0.1396,0.142,0.1495,0.1566,0.1632,0.1699,0.1738,0.1842,0.1958,0.2077,0.2217,0.2291,0.2366,0.2349,0.2341,0.2326,0.2467,0.2358,0.2374,0.2393,0.226,0.2174,0.2146,0.2148,0.215,0.2152,0.2154,0,0.1376,0.1417,0.1471,0.1557,0.1605,0.1666,0.1747,0.1758,0.1858,0.1933,0.2022,0.1905,0.1915,0.2025,0.1945,0.1915,0.19,0.1839,0.1842,0.1883,0.1919,0.1762,0.1517,0.1514,0.1512,0.151,0,0,0.1374,0.1415,0.1448,0.1525,0.1583,0.1632,0.1668,0.1674,0.1708,0.1669,0.1675,0.1745,0.1921,0.168,0.167,0.1602,0.1714,0.1525,0.204,0.2083,0.2117,0.2228,0.2032,0,0,0,0,0]},{"header":{"parameterUnit":"m.s-1","parameterCategory":2,"la1":30.2991,"la2":30.254,"lo1":-89.0895,"lo2":-89.0444,"dy":0.0017,"dx":0.0017,"nx":28,"ny":28,"refTime":"2025-06-21T03:00:00:Z","depth":"2","parameterNumber":3,"parameterNumberName":"V-component_of_CURRENTS"},"data":[0,0,0,0,0,0,0,0,0,0,0,0,0,0,0,0,0,0,0,0,0,0,0,0,0,0,0,0,0,0,0,0,0,0,0,0,0,0,0,0,0,0,0,0,0,0,0,0,0,0,0,0,0,0,0,0,0,0,-0.0237,-0.0235,0,-0.0106,-0.0104,-0.0103,-0.002,-0.0019,-0.0018,-0.0018,0.0024,0.0025,0.0025,0,0,0,0,0,0,0,0,0,0,0,0,0,-0.0446,-0.0443,-0.0237,-0.0235,-0.0233,-0.0106,-0.0104,-0.0103,-0.002,-0.0019,-0.0018,-0.0017,0.0024,0.0025,0.0025,0,0,0,0,0,0,0,0,0,0,0,0,0,-0.0342,-0.0442,-0.0238,-0.0174,-0.0167,-0.0106,-0.0104,-0.0103,-0.002,-0.0019,-0.0018,-0.0017,0.0024,0.0025,0.0025,0.0005,0,0,0.0027,0.0027,0,0,0,0,0,0,0,0,-0.0348,-0.0335,-0.0185,-0.0178,-0.017,-0.0075,-0.0162,-0.007,-0.0021,-0.0079,-0.0018,-0.0016,-0.0016,-0.0012,0.0007,0.0007,0.0009,0.0027,0.0027,0.0028,0.0028,0,0,0,0,0,0,0,-0.0355,-0.034,-0.0188,-0.0183,-0.0174,-0.0162,-0.0146,-0.0144,-0.006,-0.0074,-0.0067,-0.0048,-0.0013,0.0006,0.0008,0.001,0.0027,0.0027,0.0028,0.0028,0.0041,0.0041,0,0,0,0,0,0,-0.0364,-0.0347,-0.0192,-0.0184,-0.0255,-0.0159,-0.0141,-0.011,-0.0058,-0.0047,-0.0049,-0.0044,0.0004,0.0007,0.001,0.003,0.0028,0.0028,0.0028,0.0041,0.0041,0.0041,0,0,0,0,0,0,-0.0369,-0.0351,-0.0198,-0.0261,-0.024,-0.0156,-0.0121,-0.0107,-0.0072,-0.0037,-0.0028,-0.0025,0.0005,0.0009,0.0032,0.003,0.0028,0.0029,0.0041,0.0041,0.0041,0.0042,0,0,0,0,0,0,-0.0376,-0.0354,-0.0336,-0.0261,-0.0237,-0.0154,-0.0122,-0.0106,-0.0061,-0.0053,-0.0015,-0.001,0.0007,0.0031,0.0032,0.0031,0.0029,0.0041,0.0041,0.0041,0.0042,0.0042,0.0043,0,0,0,0,0,-0.0383,-0.0358,-0.0336,-0.0317,-0.0214,-0.0153,-0.014,-0.008,-0.0061,-0.0045,-0.0014,-0.001,0.0031,0.0031,0.0033,0.0032,0.0041,0.0041,0.0041,0.0042,0.0042,0.0042,0,0,0,0,0,0,-0.0438,-0.0345,-0.0319,-0.0266,-0.0213,-0.0138,-0.0112,-0.0079,-0.004,-0.0032,-0.0007,0.0,0.0022,0.0022,0.0022,0.0035,0.0035,0.0035,0.0035,0.0035,0.0035,0.0034,0.003,0,0,0,0,0,-0.0444,-0.0398,-0.032,-0.0279,-0.0252,-0.0186,-0.0154,-0.0113,-0.0066,-0.0046,-0.0017,0.0004,0.0019,0.0025,0.0043,0.0044,0.0019,0.0042,0.0042,0.0042,0.0043,0.0004,0.0,0.0042,0.0042,0.0042,0,0,-0.0451,-0.0396,-0.0368,-0.0288,-0.0241,-0.0191,-0.0163,-0.0109,-0.0068,-0.0053,0.0001,0.001,0.0023,0.0039,0.0046,0.004,0.0015,0.0042,0.0042,0.0043,0.0004,-0.0,-0.0004,0.0042,0.0042,0.0042,0,0,-0.0443,-0.0397,-0.0355,-0.031,-0.0235,-0.0194,-0.0179,-0.0103,-0.007,-0.0028,-0.0005,0.0003,0.0033,0.0041,0.0047,0.0051,0.0024,0.0052,0.0044,0.0007,0.0003,-0.0001,-0.0051,-0.006,0.0043,0.0043,0.0043,0,-0.0454,-0.0385,-0.0338,-0.0288,-0.0245,-0.0195,-0.0145,-0.0108,-0.0035,-0.0018,-0.0009,0.0027,0.0034,0.0044,0.0048,0.0051,0.0019,0.0044,0.0005,0.0001,-0.0002,-0.0053,-0.0062,0.0043,0.0043,0.0043,0.0043,0,-0.0412,-0.0356,-0.033,-0.0245,-0.0204,-0.0154,-0.0094,-0.0058,-0.0025,0.0006,0.003,0.0036,0.0053,0.0048,0.0051,0.0029,0.0012,0.0016,0.0003,-0.0007,-0.0059,-0.0069,0.0043,0.0043,0.0043,0.0043,0,0,-0.042,-0.0318,-0.0304,-0.0258,-0.0174,-0.013,-0.0079,-0.0019,0.0016,0.0041,0.0069,0.0073,0.0063,0.0067,0.0059,0.0019,-0.0042,0.0001,-0.0001,-0.0053,-0.0143,-0.0173,-0.0187,-0.005,-0.0051,-0.0052,-0.0174,0,-0.0392,-0.0302,-0.0257,-0.0171,-0.0116,-0.0067,-0.0021,0.0028,0.0061,0.0093,0.0074,0.0098,0.0074,0.0076,0.0031,-0.0002,-0.0065,-0.0011,-0.0122,-0.0125,-0.0154,-0.0197,-0.0183,-0.0292,-0.0183,-0.0185,-0.0186,0,-0.0354,-0.0295,-0.021,-0.0118,-0.0091,-0.004,0.0038,0.0085,0.0121,0.0137,0.0132,0.0128,0.0092,0.0067,-0.0035,0.0,-0.008,-0.0128,-0.0133,-0.0167,-0.0173,-0.0261,-0.0313,-0.0202,-0.0201,-0.02,-0.0199,0,-0.0364,-0.0259,-0.0191,-0.0155,-0.0052,-0.0009,0.0042,0.0098,0.0147,0.0163,0.0187,0.0139,0.014,0.0031,-0.005,-0.0054,-0.0172,-0.0187,-0.0303,-0.0306,-0.0318,-0.032,-0.0296,-0.0296,-0.0296,-0.0295,-0.0295,0,-0.0338,-0.0276,-0.0186,-0.014,-0.0054,0.0001,0.0083,0.0126,0.0178,0.0237,0.0207,0.0235,0.0131,0.0069,-0.0049,-0.0193,-0.0176,-0.032,-0.0343,-0.0318,-0.0319,-0.0249,-0.0242,-0.03,-0.0299,-0.0298,-0.0297,0,-0.033,-0.0278,-0.0187,-0.0084,-0.0046,0.0019,0.0134,0.0188,0.0227,0.0301,0.0309,0.0306,0.0226,0.0107,-0.0048,-0.0172,-0.0318,-0.038,-0.0347,-0.0365,-0.0441,-0.0432,-0.0553,-0.0555,-0.0557,-0.0559,-0.056,0,-0.0306,-0.0263,-0.0144,-0.0079,-0.0017,0.0078,0.015,0.0212,0.0277,0.0353,0.0393,0.035,0.0324,0.0086,-0.0117,-0.0349,-0.0347,-0.0505,-0.0521,-0.0459,-0.0469,-0.0457,-0.0447,-0.0545,-0.0546,-0.0547,-0.0548,0,-0.0253,-0.0218,-0.0142,-0.002,0.0071,0.0165,0.0271,0.0323,0.0401,0.0462,0.0535,0.0512,0.0307,0.0095,-0.021,-0.0365,-0.0468,-0.0534,-0.0476,-0.0473,-0.0459,-0.0466,-0.0454,-0.0556,-0.0555,-0.0554,-0.0554,-0.0554,-0.0201,-0.0146,-0.0052,0.0064,0.0163,0.0266,0.0347,0.0443,0.0544,0.0649,0.0608,0.0596,0.035,-0.0031,-0.0284,-0.053,-0.0541,-0.0646,-0.0641,-0.0635,-0.0603,-0.0591,-0.0709,-0.0709,-0.0709,-0.0709,-0.0709,0,-0.0121,-0.0061,0.0038,0.0171,0.0274,0.0323,0.0449,0.0527,0.0658,0.0714,0.075,0.0531,0.0253,0.0007,-0.038,-0.0651,-0.0644,-0.0713,-0.0649,-0.0642,-0.0635,-0.06,-0.0707,-0.0707,-0.0707,-0.0707,0,0,-0.0068,0.0028,0.0065,0.0247,0.035,0.0497,0.0575,0.0685,0.0756,0.0818,0.0819,0.0699,0.0359,0.0087,-0.0264,-0.0474,-0.0489,-0.0513,-0.0497,-0.0376,-0.0365,-0.0592,-0.053,0,0,0,0,0]}],[{"header":{"parameterUnit":"m.s-1","parameterCategory":2,"la1":30.2991,"la2":30.254,"lo1":-89.0895,"lo2":-89.0444,"dy":0.0017,"dx":0.0017,"nx":28,"ny":28,"refTime":"2025-06-21T03:00:00:Z","depth":"4","parameterNumber":2,"parameterNumberName":"U-component_of_CURRENTS"},"data":[0,0,0,0,0,0,0,0,0,0,0,0,0,0,0,0,0,0,0,0,0,0,0,0,0,0,0,0,0,0,0,0,0,0,0,0,0,0,0,0,0,0,0,0,0,0,0,0,0,0,0,0,0,0,0,0,0,0,0.086,0.086,0,0.0892,0.0892,0.0893,0.0925,0.0925,0.0926,0.0926,0.1012,0.1014,0.1015,0,0,0,0,0,0,0,0,0,0,0,0,0,0.083,0.083,0.086,0.086,0.0861,0.0892,0.0892,0.0893,0.0924,0.0925,0.0926,0.0927,0.1012,0.1014,0.1016,0,0,0,0,0,0,0,0,0,0,0,0,0,0.0849,0.083,0.0859,0.0882,0.0884,0.0892,0.0892,0.0893,0.0924,0.0925,0.0926,0.0927,0.1011,0.1013,0.1016,0.1014,0,0,0.1024,0.1025,0,0,0,0,0,0,0,0,0.0848,0.085,0.0878,0.088,0.0883,0.0907,0.0914,0.0937,0.0924,0.0907,0.0926,0.0927,0.0983,0.0987,0.0988,0.1018,0.1022,0.1024,0.1026,0.1027,0.1027,0,0,0,0,0,0,0,0.0846,0.0849,0.087,0.0879,0.0882,0.0892,0.0896,0.0918,0.0939,0.0909,0.0911,0.0918,0.0984,0.0985,0.099,0.1023,0.1024,0.1026,0.1028,0.1029,0.1111,0.1111,0,0,0,0,0,0,0.0845,0.0847,0.0869,0.0872,0.087,0.0892,0.0896,0.0897,0.0937,0.0945,0.0917,0.0919,0.098,0.0987,0.0994,0.108,0.1027,0.1029,0.1031,0.111,0.1111,0.1111,0,0,0,0,0,0,0.0844,0.0847,0.0868,0.0862,0.0866,0.0892,0.0893,0.0897,0.0925,0.0944,0.0952,0.0944,0.0981,0.099,0.1038,0.1081,0.103,0.1033,0.1109,0.111,0.1111,0.1198,0,0,0,0,0,0,0.0843,0.0846,0.0859,0.0862,0.0866,0.0889,0.0892,0.0897,0.0927,0.0931,0.0969,0.0976,0.0983,0.1034,0.104,0.1083,0.1035,0.1109,0.111,0.1111,0.1194,0.1202,0.1208,0,0,0,0,0,0.0842,0.0851,0.0859,0.0863,0.0879,0.089,0.0894,0.0914,0.0928,0.0942,0.0972,0.0977,0.1045,0.1037,0.1044,0.1089,0.1108,0.1109,0.1111,0.1191,0.12,0.1208,0,0,0,0,0,0,0.0846,0.0855,0.0865,0.0878,0.0893,0.0897,0.0915,0.0928,0.096,0.0974,0.0991,0.1,0.1053,0.1052,0.1042,0.111,0.1075,0.1078,0.1133,0.1142,0.1149,0.113,0.1037,0,0,0,0,0,0.0853,0.0865,0.0873,0.0888,0.0895,0.091,0.0923,0.0937,0.0959,0.0975,0.1012,0.1038,0.1057,0.1086,0.11,0.1148,0.1129,0.1176,0.1183,0.1189,0.1175,0.1183,0.119,0.1116,0.1116,0.1116,0,0,0.0857,0.0867,0.0874,0.0891,0.0903,0.0918,0.092,0.0946,0.0964,0.098,0.1038,0.1066,0.1071,0.112,0.1144,0.1135,0.1203,0.1191,0.1197,0.1179,0.1186,0.1193,0.12,0.1117,0.1117,0.1117,0,0,0.0868,0.0882,0.0895,0.0911,0.0937,0.0943,0.0956,0.0986,0.1004,0.105,0.1067,0.1114,0.116,0.1176,0.1183,0.1231,0.1231,0.1253,0.1292,0.1302,0.1308,0.1313,0.1314,0.1319,0.1268,0.1268,0.1268,0,0.0878,0.0891,0.0902,0.0922,0.0938,0.0957,0.0975,0.0989,0.1039,0.1061,0.1077,0.1156,0.1172,0.1219,0.1242,0.1248,0.1256,0.1268,0.1312,0.1317,0.1321,0.132,0.1324,0.1273,0.1272,0.1272,0.1271,0,0.0893,0.0915,0.0924,0.0952,0.0972,0.0991,0.1009,0.1057,0.1089,0.11,0.1167,0.12,0.1246,0.1271,0.1275,0.1328,0.1327,0.1315,0.1296,0.1334,0.1331,0.1333,0.1279,0.1277,0.1276,0.1275,0,0,0.0876,0.0923,0.093,0.0953,0.099,0.1006,0.105,0.1081,0.1118,0.1171,0.1217,0.1265,0.1299,0.1307,0.1343,0.1366,0.1412,0.1371,0.137,0.138,0.1446,0.1406,0.1405,0.1431,0.1432,0.1432,0.1439,0,0.0883,0.0924,0.0946,0.0989,0.1005,0.1051,0.1078,0.1118,0.1162,0.1216,0.1243,0.1293,0.1304,0.1361,0.1382,0.1402,0.1421,0.1411,0.1399,0.1398,0.1364,0.1407,0.1434,0.1441,0.1442,0.1442,0.1442,0,0.0882,0.0911,0.0952,0.1006,0.1017,0.1056,0.1133,0.1161,0.122,0.1258,0.1322,0.1344,0.1397,0.1397,0.1435,0.1442,0.1446,0.1452,0.1452,0.1378,0.1362,0.1389,0.1446,0.1446,0.1446,0.1445,0.1445,0,0.0856,0.0913,0.0948,0.0968,0.1029,0.1079,0.112,0.1186,0.1215,0.1304,0.1346,0.1395,0.1439,0.145,0.1471,0.1468,0.1499,0.1482,0.1441,0.1438,0.1433,0.1427,0.1489,0.1489,0.1489,0.1489,0.1489,0,0.0842,0.0872,0.0951,0.0973,0.102,0.1073,0.1141,0.1198,0.127,0.13,0.1368,0.1417,0.1461,0.1487,0.1484,0.1476,0.1505,0.1444,0.1438,0.1471,0.1469,0.1436,0.1429,0.1489,0.1489,0.1489,0.1489,0,0.0804,0.0853,0.0895,0.0978,0.1009,0.1048,0.1146,0.1188,0.127,0.1328,0.1359,0.1439,0.1485,0.151,0.1535,0.1493,0.1486,0.1474,0.1514,0.1511,0.141,0.1408,0.1411,0.141,0.1409,0.1408,0.1407,0,0.0788,0.0806,0.0893,0.0922,0.097,0.1044,0.1085,0.1179,0.1222,0.1333,0.1342,0.1431,0.1476,0.1464,0.1504,0.1494,0.1482,0.1461,0.1422,0.1408,0.1403,0.1403,0.1402,0.1405,0.1405,0.1405,0.1404,0,0.0746,0.0784,0.0821,0.0881,0.094,0.0988,0.1066,0.1087,0.1186,0.1269,0.1316,0.1354,0.1405,0.1431,0.1449,0.1436,0.1463,0.1448,0.145,0.1413,0.1401,0.1397,0.1398,0.14,0.1401,0.1401,0.1402,0,0.0715,0.0727,0.0782,0.0828,0.0892,0.0922,0.097,0.103,0.1078,0.1199,0.1217,0.131,0.1394,0.1402,0.1412,0.141,0.1382,0.1327,0.1334,0.1338,0.1315,0.129,0.125,0,0,0,0,0,0.0677,0.0688,0.0726,0.077,0.0831,0.0869,0.0945,0.0993,0.1093,0.1098,0.1157,0.1206,0.1256,0.1304,0.1287,0.1373,0.1378,0.1347,0.1315,0.1379,0.1383,0.1365,0,0,0,0,0,0,0.065,0.0683,0.0701,0.0716,0.074,0.0793,0.0841,0.0903,0.0914,0.1022,0.1052,0.1143,0.12,0.1253,0.1266,0.128,0.1239,0.141,0.1407,0.1376,0.138,0.1384,0.1366,0,0,0,0,0]},{"header":{"parameterUnit":"m.s-1","parameterCategory":2,"la1":30.2991,"la2":30.254,"lo1":-89.0895,"lo2":-89.0444,"dy":0.0017,"dx":0.0017,"nx":28,"ny":28,"refTime":"2025-06-21T03:00:00:Z","depth":"4","parameterNumber":3,"parameterNumberName":"V-component_of_CURRENTS"},"data":[0,0,0,0,0,0,0,0,0,0,0,0,0,0,0,0,0,0,0,0,0,0,0,0,0,0,0,0,0,0,0,0,0,0,0,0,0,0,0,0,0,0,0,0,0,0,0,0,0,0,0,0,0,0,0,0,0,0,-0.0156,-0.0156,0,-0.0176,-0.0177,-0.0177,-0.0203,-0.0203,-0.0204,-0.0204,-0.0252,-0.0253,-0.0254,0,0,0,0,0,0,0,0,0,0,0,0,0,-0.0172,-0.0171,-0.0156,-0.0156,-0.0156,-0.0176,-0.0177,-0.0177,-0.0203,-0.0203,-0.0204,-0.0204,-0.0251,-0.0253,-0.0254,0,0,0,0,0,0,0,0,0,0,0,0,0,-0.0177,-0.0171,-0.0156,-0.017,-0.0171,-0.0176,-0.0177,-0.0177,-0.0203,-0.0203,-0.0204,-0.0204,-0.0251,-0.0252,-0.0254,-0.0256,0,0,-0.0259,-0.0259,0,0,0,0,0,0,0,0,-0.0177,-0.0177,-0.0168,-0.0169,-0.017,-0.0186,-0.02,-0.0204,-0.0203,-0.0193,-0.0204,-0.0204,-0.0231,-0.0234,-0.0239,-0.0258,-0.026,-0.0259,-0.026,-0.026,-0.0261,0,0,0,0,0,0,0,-0.0176,-0.0176,-0.0165,-0.0168,-0.0169,-0.0187,-0.0188,-0.0201,-0.0211,-0.0194,-0.0195,-0.0195,-0.0232,-0.0238,-0.024,-0.0261,-0.0259,-0.026,-0.0261,-0.0262,-0.0299,-0.0299,0,0,0,0,0,0,-0.0168,-0.0176,-0.0165,-0.0166,-0.0173,-0.0186,-0.0187,-0.0182,-0.021,-0.0214,-0.0194,-0.0196,-0.0235,-0.0239,-0.0242,-0.0277,-0.026,-0.0262,-0.0263,-0.0299,-0.0299,-0.0299,0,0,0,0,0,0,-0.0168,-0.0167,-0.0164,-0.017,-0.0171,-0.0185,-0.0179,-0.0182,-0.0194,-0.021,-0.0215,-0.0204,-0.0235,-0.024,-0.0255,-0.0278,-0.0263,-0.0264,-0.0299,-0.0299,-0.0299,-0.0326,0,0,0,0,0,0,-0.0169,-0.0167,-0.0166,-0.017,-0.017,-0.0168,-0.0179,-0.0182,-0.0192,-0.0195,-0.022,-0.0225,-0.0236,-0.0253,-0.0257,-0.0279,-0.0265,-0.0299,-0.0299,-0.0299,-0.0325,-0.0327,-0.0328,0,0,0,0,0,-0.0169,-0.016,-0.0166,-0.0165,-0.0167,-0.0167,-0.017,-0.0182,-0.0192,-0.0196,-0.0212,-0.0224,-0.0257,-0.0254,-0.0259,-0.0282,-0.0299,-0.0299,-0.0299,-0.0324,-0.0326,-0.0328,0,0,0,0,0,0,-0.0163,-0.0161,-0.0168,-0.0159,-0.0165,-0.0171,-0.0173,-0.0184,-0.02,-0.0204,-0.0224,-0.0229,-0.025,-0.0256,-0.0252,-0.029,-0.028,-0.0281,-0.0298,-0.03,-0.0302,-0.0292,-0.0267,0,0,0,0,0,-0.0162,-0.0159,-0.016,-0.0156,-0.0155,-0.0167,-0.0172,-0.018,-0.019,-0.0198,-0.022,-0.0238,-0.0253,-0.0267,-0.0278,-0.03,-0.03,-0.0316,-0.0318,-0.032,-0.0313,-0.0329,-0.0332,-0.0299,-0.0299,-0.0299,0,0,-0.0158,-0.0158,-0.0156,-0.0155,-0.016,-0.0159,-0.0171,-0.0174,-0.0174,-0.02,-0.0216,-0.0243,-0.0257,-0.0281,-0.0292,-0.0292,-0.033,-0.032,-0.0322,-0.0313,-0.033,-0.0333,-0.0336,-0.0299,-0.0299,-0.0299,0,0,-0.0152,-0.0148,-0.0147,-0.0148,-0.0154,-0.0156,-0.0158,-0.0171,-0.0177,-0.0188,-0.0214,-0.0247,-0.0268,-0.0293,-0.0303,-0.0318,-0.0334,-0.0332,-0.0343,-0.036,-0.0363,-0.0366,-0.0374,-0.0378,-0.034,-0.034,-0.034,0,-0.0152,-0.0145,-0.0148,-0.0147,-0.0145,-0.0154,-0.0151,-0.0152,-0.0174,-0.0186,-0.019,-0.025,-0.0268,-0.0307,-0.0319,-0.0323,-0.0335,-0.0339,-0.0364,-0.0366,-0.0368,-0.0377,-0.038,-0.0341,-0.0341,-0.0341,-0.034,0,-0.0146,-0.0141,-0.0137,-0.0138,-0.0138,-0.0133,-0.0132,-0.0147,-0.0158,-0.0169,-0.0208,-0.024,-0.028,-0.0301,-0.0314,-0.0356,-0.036,-0.0361,-0.0361,-0.0374,-0.0381,-0.0384,-0.0343,-0.0342,-0.0342,-0.0342,0,0,-0.0145,-0.0135,-0.0136,-0.0128,-0.013,-0.0124,-0.0129,-0.0137,-0.0143,-0.0177,-0.0197,-0.0245,-0.0283,-0.0296,-0.0338,-0.0365,-0.0398,-0.0379,-0.0379,-0.0392,-0.0439,-0.0435,-0.0438,-0.0416,-0.0416,-0.0417,-0.044,0,-0.0142,-0.0127,-0.0131,-0.0116,-0.0101,-0.0115,-0.0112,-0.0125,-0.0139,-0.0162,-0.0206,-0.0233,-0.0271,-0.0305,-0.0341,-0.0379,-0.0406,-0.0391,-0.042,-0.042,-0.0419,-0.0441,-0.0418,-0.0442,-0.0442,-0.0443,-0.0443,0,-0.0137,-0.0124,-0.0106,-0.009,-0.0087,-0.0086,-0.0094,-0.0094,-0.0126,-0.0143,-0.0198,-0.0227,-0.0286,-0.0303,-0.0378,-0.0373,-0.0407,-0.0433,-0.0435,-0.0421,-0.0421,-0.0424,-0.0448,-0.0448,-0.0448,-0.0447,-0.0447,0,-0.0117,-0.0106,-0.0086,-0.008,-0.0068,-0.0075,-0.0076,-0.0098,-0.0088,-0.0139,-0.0143,-0.0221,-0.0244,-0.0309,-0.0373,-0.0379,-0.044,-0.0446,-0.0474,-0.0473,-0.0458,-0.0454,-0.0488,-0.0488,-0.0488,-0.0488,-0.0488,0,-0.0097,-0.0081,-0.0075,-0.0059,-0.0037,-0.0048,-0.0037,-0.0057,-0.0074,-0.0056,-0.0132,-0.0139,-0.0246,-0.0294,-0.0363,-0.0428,-0.0431,-0.0475,-0.0482,-0.0468,-0.0466,-0.046,-0.0457,-0.0489,-0.0488,-0.0488,-0.0488,0,-0.0067,-0.0064,-0.0035,-0.0025,-0.0021,-0.0005,0.0009,0.0018,-0.0008,0.0008,-0.0003,-0.0071,-0.0145,-0.0248,-0.0345,-0.0395,-0.0468,-0.0489,-0.0464,-0.0468,-0.0492,-0.0489,-0.0517,-0.0518,-0.0518,-0.0518,-0.0518,0,-0.0046,-0.003,-0.0002,0.002,0.0026,0.0046,0.0065,0.005,0.0069,0.006,0.0077,0.0003,-0.0054,-0.0179,-0.0306,-0.0447,-0.0466,-0.0497,-0.0505,-0.0493,-0.0496,-0.0493,-0.0491,-0.0518,-0.0518,-0.0518,-0.0518,0,-0.0007,-0.0002,0.0024,0.0068,0.0093,0.0131,0.0155,0.0181,0.0175,0.0159,0.0158,0.0072,-0.0014,-0.0154,-0.0274,-0.0372,-0.0477,-0.0498,-0.0499,-0.0506,-0.0494,-0.0496,-0.0494,-0.0518,-0.0518,-0.0518,-0.0518,0,0.0018,0.0042,0.0069,0.0112,0.0151,0.0198,0.0211,0.0236,0.0251,0.0242,0.0243,0.0129,0.0055,-0.0114,-0.0219,-0.033,-0.0355,-0.0374,-0.0381,-0.0383,-0.0349,-0.0313,-0.0288,0,0,0,0,0,0.0037,0.0063,0.0109,0.0155,0.0199,0.0219,0.0265,0.0273,0.028,0.0297,0.0273,0.0191,0.0024,-0.0058,-0.0166,-0.0238,-0.039,-0.0367,-0.0418,-0.052,-0.052,-0.0505,0,0,0,0,0,0,0.0046,0.0086,0.0112,0.0182,0.0218,0.0266,0.0296,0.0305,0.0314,0.0306,0.0218,0.0172,-0.0,0.0083,-0.0167,-0.0205,-0.0247,-0.0455,-0.0456,-0.052,-0.052,-0.052,-0.0504,0,0,0,0,0]}]]